Location: M?digepalle
(16.1753°N, 80.3496°E)
Time: 09:08:50
(UTC+00:00)

SL-19 R/B - Pass Details

Date: 29 October 2020
Orbit: 358 x 808 km, 99.4° (Epoch: 28 November)

Event Time Altitude Azimuth Distance (km) Brightness Sun altitude
Rises 23:17:56 0° 12° (NNE) 2,249 7.5 -19.0°
Reaches altitude 10° 23:19:47 10° 11° (N) 1,433 6.5 -18.5°
Maximum altitude 23:22:48 84° 283° (WNW) 430 3.6 -17.8°
Drops below altitude 10° 23:26:12 10° 195° (SSW) 1,609 6.6 -17.0°
Sets 23:28:23 0° 195° (SSW) 2,561 7.7 -16.5°
